www.pogodaiklimat.ru
ПОГОДА в Питсфилде
Время
и дата
15:54 21.01
16:54 21.01
17:54 21.01
18:54 21.01
19:54 21.01
20:54 21.01
21:54 21.01
22:54 21.01
23:54 21.01
00:54 22.01
01:54 22.01
02:54 22.01
03:54 22.01
04:22 22.01
04:50 22.01
04:54 22.01
05:34 22.01
05:54 22.01
05:59 22.01
06:19 22.01
06:25 22.01
06:40 22.01
06:54 22.01
07:04 22.01
07:27 22.01
07:40 22.01
07:54 22.01
08:54 22.01
09:54 22.01
10:54 22.01
11:02 22.01
11:20 22.01
11:42 22.01
11:54 22.01
12:35 22.01
12:54 22.01
12:58 22.01
13:13 22.01
13:19 22.01
13:31 22.01
13:41 22.01
13:54 22.01
14:05 22.01
14:15 22.01
14:17 22.01
14:29 22.01
14:54 22.01
15:09 22.01
Ветер
(напр.,м/с)
Видим. Явления Облачность Т
(С)
Тd
(С)
f
(%)
Тe
(С)
Тes
(С)
Комфортность P
(гПа)
Po
(гПа)
Тmin
(С)
Tmax
(С)
R
(мм)
R24
(мм)
S
(см)
штиль 0 16 км 10/10 1050 м -2.2 -8.3 63 -3 -3 1002.3 957.8
ЮЗ 1 16 км 10/10 1650 м -1.7 -8.3 61 -5 -5 1002.5 958.1
З 1 16 км 10/10 1500 м -1.7 -7.8 63 -5 -5 1002.8 958.1
штиль 0 16 км 10/10 1290 м -2.2 -7.2 69 -3 -3 1002.9 958.1 -4.4 -1.7
штиль 0 16 км 10/10 1950 м -2.8 -6.7 74 -4 -4 1002.5 958.1
СВ 1 16 км 10/10 1950 м -3.3 -7.2 74 -7 -7 1002.0 957.5
штиль 0 16 км 10/2 1650 м
[Ac]
-3.3 -6.7 77 -4 -4 1001.5 957.1
СВ 1 16 км 10/8 1350 м
[Ac]
-3.3 -6.7 77 -8 -8 1001.1 957.1
штиль 0 16 км 10/5 1800 м
[Ac]
-3.9 -6.7 81 -5 -5 1000.3 956.2
З 1 14 км 10/10 1200 м -2.2 -6.1 75 -6 -6 1000.3 956.5 -3.9 -1.7
З 1 16 км 8/2 840 м
[Ac]
-3.9 -6.7 81 -8 -8 1000.4 956.5
штиль 0 13 км 8/0 2400 м
[Ac]
-5.6 -6.7 92 -7 -7 1000.7 956.8
штиль 0 16 км 10/8 930 м
[Ac]
-4.4 -6.1 88 -5 -5 1000.6 956.8
штиль 0 16 км 10/10 840 м -4.4 -6.1 88 -5 -5 956.8
штиль 0 14 км 10/8 900 м
[Ac]
-5.0 -6.0 93 -6 -6 956.8
штиль 0 14 км 10/8 900 м
[Ac]
-5.0 -6.7 88 -6 -6 1000.7 956.8
штиль 0 16 км 10/8 840 м
[Ac]
-4.4 -6.1 88 -5 -5 957.1
штиль 0 6 км слабый снег, дымка 10/10 840 м -4.4 -6.1 88 -5 -5 1001.0 957.1
штиль 0 4 км слабый снег, дымка 10/10 840 м -4.4 -6.1 88 -5 -5 957.1
штиль 0 3 км слабый снег, дымка 10/10 960 м -3.9 -5.6 88 -5 -5 957.5
штиль 0 3 км слабый снег, дымка 10/10 870 м -3.9 -5.6 88 -5 -5 957.5
штиль 0 5 км слабый снег, дымка 10/10 960 м -3.9 -5.0 92 -5 -5 957.5
штиль 0 8 км слабый снег, дымка 10/10 750 м -3.9 -5.0 92 -5 -5 1001.4 957.5 -6.1 -1.7 0.3
З 1 3 км слабый снег, дымка 10/10 780 м -2.8 -4.4 89 -8 -8 957.8
З 1 3 км слабый снег, дымка 10/10 690 м -2.2 -3.3 92 -6 -6 957.8
ЮЗ 2 8 км слабый снег, дымка 10/8 780 м
[Ac]
-1.7 -2.8 92 -8 -8 957.8
ЮЗ 1 14 км 10/5 1650 м
[Ac]
-1.7 -2.8 92 -7 -7 1001.6 957.8
ЮЗ 1 16 км 8/8 1500 м
[Ac]
-0.6 -3.3 82 -5 -5 1002.2 958.4
З 3 16 км 10/10 1050 м +0.6 -3.9 72 -6 -6 1002.6 959.1 0.3
З 3 16 км 10/10 930 м +0.6 -4.4 69 -6 -6 1002.7 959.1
З 3 16 км 10/10 870 м +0.6 -4.4 69 -6 -6 959.1
З 2 16 км 10/10 870 м +1.1 -4.4 67 -4 -4 959.1
З 2 16 км 10/10 870 м +0.6 -4.4 69 -4 -4 959.1
З 2
{4}
16 км 10/10 870 м +1.1 -4.4 67 -4 -4 1002.5 958.8
З 2 16 км 10/10 900 м +1.1 -4.4 67 -4 -4 959.1
З 4
{4}
6 км слабый снег 10/10 870 м +1.1 -3.9 69 -6 -6 1002.7 959.1 -3.9 +1.1 0.3
З 3 4 км слабый снег 10/10 870 м +1.1 -3.9 69 -5 -5 959.1
З 3 3 км слабый снег 10/10 870 м +0.6 -3.9 72 -6 -6 959.1
З 2 4 км слабый снег 10/10 990 м +0.6 -3.3 75 -5 -5 959.4
З 1 5 км слабый снег 10/10 870 м +0.6 -3.3 75 -4 -4 959.4
СЗ 1 10 км слабый снег 10/10 960 м +0.6 -3.3 75 -3 -3 959.4
З 2 8 км слабый снег 10/10 900 м +1.1 -3.9 69 -4 -4 1003.2 959.7
З 2 4 км слабый снег 10/10 900 м +0.6 -3.3 75 -5 -5 959.7
З 2 1 км слабый снег 10/10 480 м 0.0 -3.3 78 -6 -6 960.1
З 2 800 м снег 10/10 420 м 0.0 -2.8 81 -6 -6 960.1
З 2 2 км слабый снег, дымка 10/10 480 м 0.0 -2.2 85 -5 -5 960.1
З 2 1 км слабый снег ?/? 0.0 -2.8 81 -5 -5 1004.3 960.4
З 2 2 км слабый снег 10/10 570 м 0.0 -2.8 81 -5 -5 960.4
Местоположение метеостанции Pittsfield Municipal Airport: широта 42.4272 долгота -73.2892 высота над уровнем моря 364 м.
В архиве по умолчанию представлена погода в Питсфилде за последние 1-2 суток. Обновление информации о фактической погоде в базе происходит ежечасно! Архивные данные за месяц целиком и за предыдущие месяцы Вы можете получить, выбрав интересующий диапазон дат из раскрывающегося списка и нажав кнопку "Ввод!".
Внимание! Архив погоды МЕТАР в базе сайта по станциям, не включенным в климатический монитор, хранится не более 60 дней. Нет смысла пытаться выбрать более раннюю дату.
*Определитесь, кто Вы:
Внимание! Время в таблицах - местное (без учета летнего времени). Для получения всемирного времени необходимо вычесть поправку, которая равна -5 ч.
Смотрите также архив погоды в соседних городах и на ближайших метеорологических станциях:
Партнеры нашего сайта:      
Пояснения к столбцам:
  • Ветер - указаны скорость ветра в м/с - средняя за 10 мин, порывы в срок и между сроками (в фигурных скобках) и направление, откуда дует ветер: С - северный,
  • СВ - северо-восточный, В - восточный, ЮВ - юго-восточный, Ю - южный, ЮЗ - юго-западный, З - западный, СЗ - северо-западный.
  • Видимость - горизонтальная дальность видимости в метрах или километрах. При видимости от 1 до 10 км при отсутствии осадков обычно наблюдается дымка, при ухудшении видимости до 1 км и менее - туман. В сухую погоду видимость может ухудшаться дымом, пылью или мглою.
  • Явления - указаны атмосферные явления, наблюдавшиеся в срок или в последний час перед сроком; фигурными скобками обозначены явления, наблюдавшиеся между сроками (за 1-3 часа до срока); квадратными скобками обозначены град или гололедные отложения с указанием их диаметра в мм.
  • Облачность - указаны через наклонную черту общая и нижняя облачность в баллах и высота нижней границы облаков в метрах; квадратными скобками обозначены формы облаков: Ci - перистые, Cs - перисто-слоистые, Cc - перисто-кучевые, Ac - высококучевые, As - высокослоистые, Sc - слоисто-кучевые, Ns - слоисто-дождевые, Cu - кучевые, Cb - кучево-дождевые. Подробнее классификацию облаков см. в Атласе облаков (PDF).
  • T - Температура воздуха - температура, измеренная на высоте 2 м над землей.
  • Td - Температура точки росы - температура, при понижении до которой содержащийся в воздухе водяной пар достигнет насыщения.
  • f - Относительная влажность воздуха - влажноcть воздуха, измеренная на высоте 2 м над землей.
  • Te - Эффективная температура - температура, которую ощущает одетый по сезону человек в тени. Характеристика душности погоды. При расчете учитывается влияние влажности воздуха и скорости ветра на теплоощущения человека.
  • Tes - Эффективная температура на солнце - температура, которую ощущает человек, с поправкой на солнечный нагрев. Характеристика знойности погоды. Зависит от высоты солнца над горизонтом, облачности и скорости ветра. Ночью, в пасмурную погоду, а также при ветре 12 м/с и более поправка равна нулю.
  • P - Атмосферное давление - приведенное к уровню моря атмосферное давление.
  • Po - Атмосферное давление - измеренное на уровне метеостанции атмосферное давление.
  • Tmin - Минимальная температура - минимум температуры воздуха на высоте 2 м над землей.
  • Tmax - Максимальная температура - максимум температуры воздуха на высоте 2 м над землей.
  • R - Количество осадков - Количество выпавших осадков за период времени, мм. При наведении курсора мыши на число - период времени, за который выпало указанное количество осадков.
  • R24 - Количество осадков - Количество выпавших осадков за 24 часа, мм.
  • S - Снежный покров - Высота снежного покрова, см. При наведении курсора мыши на число - состояние снежного покрова и степень покрытия местности в баллах.